Theta_e
329 320 316 316 310 308 309 299 294 293 285 285 281 287 291 291 293 292 293 292 294 294 295 295 294 297 298 295 296 295 294 292 292 287 292 295 304 309 316 325 321 327 331 335 340 342 345 347 351 353 354 355 355 355 354 354 354 353 352 351 351 350 350 349 348 347 347 347 347 348 348 348 348 348 347 347 346 348 347 347 347 347 347 348 348 348 346 348 347 346 345 344 342 341 340 340 339
323 316 315 315 311 307 302 294 289 282 283 283 285 285 287 289 292 290 293 293 294 299 294 294 295 294 293 293 293 296 296 297 296 298 301 302 306 310 314 323 322 328 331 335 339 342 344 345 349 352 354 355 355 354 354 353 353 353 352 351 350 350 349 349 348 347 347 346 349 348 348 348 348 347 347 347 347 347 347 348 347 347 347 348 348 348 347 345 346 346 345 344 342 340 339 339 338
319 315 314 310 307 303 297 295 294 279 281 282 282 285 288 290 290 290 291 292 293 295 292 294 295 297 297 297 297 295 296 297 296 296 303 307 307 306 317 322 325 328 331 335 339 341 344 344 346 351 354 355 354 355 354 353 353 352 351 351 351 350 349 349 348 346 348 346 347 348 348 348 348 347 347 346 346 346 347 347 347 346 347 348 347 347 346 346 345 346 344 343 342 340 338 337 337
312 314 312 306 305 297 294 286 284 281 283 279 282 285 287 290 289 289 290 292 292 292 295 298 299 299 298 294 298 297 295 298 297 302 303 309 305 307 318 323 324 328 330 334 339 341 343 344 345 351 353 354 354 354 354 354 352 352 351 351 351 350 349 349 348 347 347 346 348 348 348 348 346 346 346 346 346 346 346 346 346 346 346 347 347 346 346 345 345 344 343 342 341 339 337 336 335
311 315 306 302 298 297 288 287 283 280 282 281 286 287 287 288 291 289 291 290 290 293 295 298 296 298 299 299 297 297 300 298 301 302 306 307 309 310 320 324 328 330 330 332 337 340 341 343 344 347 353 354 354 354 353 353 352 352 351 351 351 350 349 349 348 348 347 347 347 348 347 347 347 346 346 346 345 345 346 345 346 346 346 346 347 346 346 345 344 343 342 341 339 338 335 334 333
308 308 307 304 303 297 292 289 288 288 285 285 287 291 289 288 290 292 290 291 294 294 295 294 298 298 297 298 296 300 296 302 301 305 307 312 315 313 321 326 329 329 329 331 335 339 340 341 344 346 352 353 353 353 353 353 352 351 351 351 351 350 349 349 348 348 348 348 347 348 348 347 347 346 346 345 344 344 345 346 346 346 345 346 346 346 345 344 343 342 339 339 338 336 334 333 332
310 302 301 301 298 295 290 283 286 283 292 288 292 288 290 289 289 290 293 295 297 296 294 299 294 296 295 295 297 298 297 303 305 306 308 311 314 319 323 329 328 327 327 330 333 336 338 341 344 348 350 351 353 353 353 352 352 352 351 351 350 350 349 349 348 348 348 348 348 348 348 347 347 346 346 345 344 345 345 346 346 346 346 346 345 345 344 343 342 340 338 338 337 335 332 331 330
308 304 298 294 291 287 285 283 286 285 291 288 291 290 290 290 287 292 292 293 294 297 296 293 294 296 296 294 296 297 297 302 306 309 314 313 315 320 324 329 327 325 327 328 331 333 337 340 343 347 348 352 352 352 353 352 352 351 351 350 350 350 350 349 349 348 348 348 348 348 348 348 348 347 346 345 344 344 345 346 346 346 346 345 345 344 342 341 339 337 338 337 336 333 331 329 328
303 301 297 295 288 285 282 286 287 286 288 289 290 290 299 298 289 292 292 292 293 293 292 296 295 294 293 294 294 296 299 303 305 311 313 315 317 319 324 323 326 327 330 329 330 331 332 338 341 346 346 350 351 352 353 353 352 352 351 350 350 350 350 349 349 348 349 348 348 348 348 348 348 347 346 345 344 345 345 345 345 346 345 344 343 342 341 340 338 339 338 337 335 332 331 328 326
301 299 292 290 285 286 281 285 287 290 289 290 290 291 290 292 291 292 293 294 295 292 294 293 295 297 295 296 295 301 306 302 307 315 313 315 317 317 322 323 321 327 330 331 329 332 332 336 338 340 343 347 350 351 352 352 352 352 351 350 350 350 350 349 349 348 348 348 348 348 348 348 347 347 346 346 345 345 345 345 344 343 343 342 341 340 339 339 339 338 341 338 334 331 329 327 324
296 293 293 288 281 281 284 284 282 287 288 290 290 291 292 290 293 292 292 293 291 293 292 294 298 296 295 295 295 299 300 298 311 313 314 312 315 316 317 317 319 323 329 330 329 330 331 334 334 337 340 342 347 349 350 351 352 351 351 351 350 350 350 350 348 349 349 348 348 349 348 348 347 347 347 346 345 345 345 345 343 343 342 341 340 339 338 338 337 339 340 336 333 330 329 325 322
296 290 288 281 283 283 283 284 284 287 289 287 296 293 292 293 292 293 294 294 292 290 293 295 296 294 294 291 296 299 297 299 306 311 309 309 316 315 315 314 316 321 323 325 326 328 329 330 333 335 336 336 341 344 346 348 349 350 350 350 350 350 349 349 349 349 349 349 349 349 349 349 347 347 346 345 345 344 344 344 343 342 341 341 340 339 337 337 336 339 337 333 332 330 327 324 322
293 287 284 283 285 284 284 283 284 289 285 289 293 296 291 294 295 293 292 290 289 291 296 294 296 296 293 295 296 292 299 300 299 303 306 308 313 311 313 314 315 319 320 322 327 329 327 329 332 335 336 333 334 336 339 342 344 347 348 349 348 348 348 348 349 349 349 349 349 349 349 347 346 347 347 346 345 344 344 344 344 342 342 341 340 338 337 336 337 338 335 332 331 329 327 323 320
294 289 288 286 281 282 283 286 285 289 287 292 288 290 291 294 292 293 290 293 291 294 294 295 296 295 296 292 291 288 291 297 299 305 308 310 309 309 313 310 312 315 318 322 327 328 329 329 331 334 338 339 340 336 333 337 341 345 345 345 345 346 346 347 347 347 347 347 346 345 343 343 344 345 345 345 345 345 343 342 343 342 342 341 340 337 335 339 338 335 333 332 330 328 326 322 319
299 290 283 283 281 283 284 289 288 284 290 292 294 292 291 294 292 289 294 292 293 292 294 296 298 296 292 293 292 292 295 296 299 306 309 311 307 308 308 310 310 312 314 319 323 325 329 329 332 335 337 340 341 340 340 339 334 339 341 342 342 343 344 343 344 343 342 343 343 341 339 338 336 338 339 341 342 341 338 335 341 343 341 341 339 336 333 338 336 334 333 331 329 327 325 321 319
295 290 284 285 283 282 285 286 285 286 290 289 293 289 291 294 292 295 294 296 295 296 295 298 298 297 295 295 296 297 295 299 303 307 311 311 305 309 306 308 312 311 313 319 323 324 325 330 334 336 338 340 341 341 340 341 335 331 336 338 339 340 340 341 340 338 335 336 337 336 334 331 331 335 331 335 334 339 337 332 336 337 342 341 337 334 335 337 335 334 332 331 329 327 324 320 317
293 289 288 280 285 283 286 287 286 289 287 288 289 291 293 292 291 292 294 294 296 294 291 294 298 296 294 296 298 295 300 307 309 310 308 309 306 308 307 307 308 311 314 316 322 326 325 328 332 334 337 339 340 341 341 341 341 330 331 331 333 336 337 336 337 333 329 328 329 328 327 332 333 335 333 336 328 336 330 327 332 336 340 340 338 337 336 336 335 333 332 330 328 326 321 318 317
290 284 282 284 282 284 286 289 288 292 292 292 291 290 292 290 291 295 295 293 288 290 292 293 293 293 295 294 296 297 302 306 306 309 306 305 304 306 308 309 308 313 312 314 313 321 328 329 330 333 335 337 339 340 341 341 342 335 339 340 337 336 332 331 332 333 329 330 326 329 330 328 328 331 334 332 334 333 330 325 328 334 338 335 335 337 337 335 334 333 332 330 328 324 316 301 298
287 284 284 285 281 288 291 289 289 291 292 290 290 288 291 292 292 293 293 291 289 293 295 293 293 293 293 294 293 293 302 303 305 305 305 304 305 306 307 307 308 309 312 314 315 316 323 329 331 332 333 335 337 338 340 340 341 339 339 341 339 332 334 331 334 333 332 331 331 332 329 327 327 329 332 332 333 327 331 323 327 330 334 332 333 335 336 335 334 333 331 329 325 316 301 295 292
291 289 287 283 286 288 289 290 293 291 293 293 291 291 290 293 293 293 294 291 291 293 294 292 292 295 294 294 293 293 296 298 300 302 302 302 303 303 303 304 305 306 308 310 313 313 317 324 330 332 332 334 335 337 338 339 339 339 340 341 340 338 337 336 335 335 334 334 334 334 332 329 330 331 329 325 327 331 330 321 324 326 329 327 328 330 332 334 333 332 330 325 313 302 297 294 291
294 290 286 288 288 292 293 290 292 291 291 292 291 290 291 293 290 293 292 293 294 294 293 295 295 294 295 294 293 293 293 294 295 295 295 295 296 297 298 299 300 301 303 306 308 311 313 318 326 330 332 332 334 335 336 338 338 339 339 340 339 338 336 336 338 336 336 334 335 335 333 332 332 331 330 329 329 330 327 326 324 325 326 326 323 325 324 327 325 319 314 307 300 300 296 293 290
293 292 289 290 289 292 293 291 291 291 289 292 289 292 294 293 294 291 292 291 293 295 294 292 295 294 293 292 291 294 294 294 295 294 294 294 294 295 296 296 296 296 298 300 302 305 309 313 317 326 330 332 333 334 335 336 337 337 337 338 339 337 337 336 334 337 335 334 335 334 333 332 331 331 329 328 328 327 326 325 324 324 323 323 323 321 319 320 317 314 310 305 299 297 295 291 293
293 289 291 290 289 293 293 292 291 292 292 292 291 293 291 292 292 291 293 294 296 296 295 296 294 293 292 295 294 294 294 293 294 294 294 293 294 294 295 295 295 296 296 297 298 299 301 306 311 317 326 330 332 334 335 335 336 337 337 337 338 337 335 334 335 335 337 336 334 334 334 331 329 330 328 326 326 325 325 323 322 322 323 322 320 321 318 316 314 312 309 306 299 297 294 292 291
293 291 289 293 290 293 293 295 292 290 291 292 292 290 291 291 292 290 290 294 295 295 293 292 293 296 296 294 293 293 292 292 292 293 293 293 293 294 294 294 295 296 296 297 299 299 300 301 304 310 321 327 330 332 333 334 335 335 336 335 336 335 337 337 332 333 334 334 334 332 330 332 331 329 328 326 324 324 325 323 321 321 321 320 318 320 319 313 312 310 309 305 301 297 296 293 292
293 291 290 291 290 291 290 289 289 289 289 290 289 291 293 291 291 290 294 293 294 293 291 292 294 294 294 293 292 292 291 292 292 292 293 293 293 294 294 295 295 296 296 297 298 300 301 303 304 307 314 321 327 330 332 332 333 334 334 334 334 332 333 334 336 336 332 330 333 335 333 331 329 329 327 326 323 323 322 321 321 321 320 318 316 315 316 313 312 310 309 307 300 298 296 295 294
292 291 290 288 290 290 290 290 290 290 290 289 291 292 291 290 290 290 292 293 292 291 292 293 293 292 292 292 291 291 291 291 291 291 292 293 293 293 293 294 295 295 296 297 298 300 302 304 306 308 312 316 321 327 329 330 330 331 332 333 334 333 333 332 332 332 333 331 330 329 329 333 331 329 327 324 324 321 320 318 319 319 319 318 317 317 314 315 313 309 308 307 304 299 297 296 295
291 290 289 290 292 289 290 291 291 290 291 289 291 291 290 289 291 289 290 291 291 291 292 292 292 291 291 291 291 291 290 290 290 291 291 292 292 292 293 293 293 294 296 297 298 300 302 304 309 310 311 312 317 323 325 327 327 329 330 331 331 332 333 333 332 332 325 327 329 329 329 329 328 327 326 324 324 323 319 317 318 316 316 316 316 317 313 314 312 313 311 309 306 301 299 295 295
290 291 290 290 288 289 290 288 289 289 292 288 290 289 289 289 290 289 291 291 290 290 291 292 291 290 290 290 290 290 290 290 291 290 290 290 290 291 291 292 292 293 295 296 298 299 301 303 308 311 313 312 315 319 320 323 325 326 325 328 329 330 331 331 331 330 327 327 325 327 326 325 323 325 326 325 322 321 321 320 318 316 317 316 316 315 313 311 311 309 308 307 305 302 298 294 292
290 290 291 288 288 291 290 290 289 291 292 288 289 290 290 289 289 290 290 289 290 289 290 291 290 290 289 289 289 289 289 290 290 289 290 290 291 291 291 292 292 292 295 296 297 299 300 301 305 309 312 314 316 318 320 320 321 323 323 325 327 327 328 329 330 330 329 327 325 322 322 323 323 324 321 322 320 322 321 319 318 318 319 316 313 313 312 309 309 308 306 305 303 301 298 296 293
291 287 287 289 287 289 290 290 288 291 292 286 290 286 286 286 290 290 290 289 288 289 289 290 289 289 289 288 289 289 289 289 289 289 289 290 290 291 290 291 293 292 294 295 297 297 299 301 303 306 309 311 312 315 315 318 317 318 320 321 322 324 325 326 326 328 328 327 328 328 326 322 320 319 319 318 320 319 319 319 318 318 319 317 315 313 313 310 310 309 306 305 304 301 300 297 295
291 288 286 285 284 284 289 288 289 292 290 288 292 287 285 287 291 291 290 289 290 288 290 290 289 288 288 288 288 288 288 289 289 289 289 290 290 291 290 291 291 292 293 294 295 296 298 299 301 302 305 309 310 312 313 314 314 315 316 316 317 319 320 322 322 323 323 324 323 321 321 321 321 320 320 322 320 317 318 318 317 318 316 313 313 312 312 309 309 309 306 307 301 300 298 297 295
284 287 283 279 284 284 287 290 288 291 291 287 290 284 287 290 292 290 291 291 290 288 289 288 287 287 287 287 287 287 288 288 288 289 289 289 290 290 290 290 291 291 292 293 294 296 296 297 298 299 301 305 309 311 312 314 315 316 315 314 316 316 317 317 317 318 319 319 319 320 319 319 319 319 319 319 319 317 317 316 317 316 313 312 311 310 311 310 309 308 306 308 305 303 301 301 293
280 285 281 282 282 282 287 290 287 288 289 289 290 287 284 290 289 289 291 291 288 288 288 287 287 287 287 287 287 287 287 287 288 288 288 289 289 289 290 290 290 291 292 292 292 294 295 295 297 297 298 300 305 309 312 313 314 314 313 314 314 313 313 313 313 314 314 314 315 315 316 315 317 318 317 316 316 315 314 314 312 310 309 312 311 310 311 311 309 308 304 305 308 308 302 302 296
282 280 282 281 283 283 285 287 289 287 290 291 287 287 286 291 292 290 291 289 288 288 287 287 287 287 287 287 286 286 286 286 286 287 287 288 288 289 289 291 290 290 291 291 292 292 293 294 295 296 297 298 301 305 309 311 312 312 312 311 311 311 311 311 310 310 310 311 311 311 311 311 312 313 314 315 315 314 314 313 311 310 310 310 309 308 309 307 307 308 307 302 303 304 303 302 302
280 283 282 284 282 282 286 284 288 290 287 289 287 286 287 290 291 290 290 289 288 287 287 286 286 286 286 286 286 286 286 285 286 287 287 287 287 288 289 289 289 290 290 291 291 292 292 293 294 294 295 297 299 301 305 307 308 309 309 308 308 308 308 308 308 307 307 308 308 308 308 308 308 310 310 311 311 311 311 311 311 310 310 310 308 307 306 305 304 304 306 302 297 298 301 299 299
286 284 283 281 284 285 284 286 287 289 288 288 286 288 290 290 290 288 290 289 287 287 287 286 286 286 286 286 285 285 285 285 287 287 287 287 287 287 288 288 288 289 289 290 291 291 291 292 292 293 294 295 297 299 300 302 303 303 303 303 303 303 303 302 303 303 302 301 303 305 305 305 306 306 307 308 308 308 308 308 308 308 308 308 308 307 306 306 305 304 303 303 300 298 296 293 292
284 284 283 283 284 285 285 286 288 288 288 286 287 285 284 286 286 288 289 288 287 287 286 285 285 285 285 285 285 285 285 285 286 286 286 286 286 287 287 287 287 288 288 289 289 289 289 290 291 290 292 294 295 296 296 297 298 299 298 298 298 299 298 298 298 298 297 297 298 299 300 301 302 303 304 305 305 305 306 306 306 306 307 306 306 305 304 304 303 302 301 299 300 299 297 292 292
287 286 284 284 282 284 286 288 288 287 288 284 283 284 287 288 286 287 287 287 285 285 285 285 285 285 285 284 284 284 285 286 286 285 286 285 286 286 286 286 287 286 286 287 287 288 289 289 289 290 291 292 293 294 295 295 295 295 296 296 295 295 295 294 294 295 295 295 294 295 296 296 296 297 299 301 301 303 303 304 304 304 304 305 304 303 303 300 301 300 300 299 297 298 298 293 294
285 285 284 283 285 283 286 287 285 287 287 286 282 286 288 286 286 287 286 285 285 285 285 285 284 284 284 284 284 284 284 284 284 284 284 285 285 285 285 285 285 285 285 286 286 287 287 288 288 289 289 290 291 293 294 294 294 295 295 293 294 292 294 293 292 293 293 292 292 292 293 293 293 293 294 296 297 298 299 301 301 302 302 302 303 303 303 302 301 299 299 300 298 295 294 293 293
284 283 283 284 283 285 284 285 285 287 286 285 284 284 288 284 285 285 286 285 285 285 285 284 284 284 283 283 283 283 283 283 283 283 283 283 284 284 284 284 284 284 285 285 285 286 286 287 287 288 288 289 290 291 292 292 294 293 294 293 293 292 291 292 291 291 291 290 289 290 290 290 291 291 292 293 293 294 295 296 298 298 299 300 301 300 300 300 300 300 300 299 299 297 296 294 294
283 284 284 284 284 284 287 286 285 283 286 283 285 284 284 283 284 283 285 286 285 285 285 284 284 284 284 284 284 284 282 282 282 283 283 283 283 283 283 283 284 284 284 283 284 284 285 285 286 287 287 288 288 290 290 291 292 292 292 292 291 290 290 289 289 288 288 289 288 288 288 289 289 289 289 290 291 291 292 293 294 294 295 296 297 297 296 297 297 298 298 297 297 298 297 295 293
281 282 287 287 287 287 283 283 286 280 283 282 285 279 277 279 281 283 284 284 283 284 282 282 283 283 283 283 283 283 284 283 282 282 282 282 282 282 283 283 283 283 283 283 283 284 284 285 285 286 286 287 287 288 289 290 289 289 289 288 287 286 285 285 285 285 286 286 286 287 287 287 287 287 288 288 288 289 289 290 291 291 292 293 294 294 294 294 294 294 295 295 294 294 294 293 294
284 286 286 288 286 285 283 284 284 280 278 284 282 281 274 279 281 283 283 282 282 283 282 283 282 283 282 283 283 283 282 282 282 282 282 282 282 282 282 282 282 282 282 282 283 283 283 284 284 285 285 286 287 287 288 289 288 287 287 286 286 285 284 284 285 285 285 285 286 285 285 286 286 286 286 287 287 288 288 288 289 289 290 290 291 291 291 291 292 292 293 293 293 294 294 293 293
283 284 283 285 284 284 283 283 284 280 280 282 281 283 277 275 283 284 283 282 281 282 282 282 282 282 282 283 283 282 282 282 281 281 281 281 281 281 281 281 281 282 281 282 283 283 283 283 283 283 284 285 285 286 286 287 287 286 286 286 286 284 284 283 284 284 284 284 284 283 284 284 284 284 284 285 286 286 287 287 287 287 288 288 289 289 289 290 291 292 292 292 292 293 292 291 291
284 284 282 283 284 282 282 283 280 280 282 279 278 282 280 275 280 281 283 281 280 281 281 281 282 282 282 282 283 282 283 282 281 281 281 281 281 280 281 281 281 281 281 282 282 282 282 282 283 283 283 283 283 284 285 285 286 285 285 284 284 284 284 283 283 284 283 283 282 283 283 283 283 284 284 284 284 284 285 285 285 286 286 287 287 287 288 289 289 289 290 290 291 291 291 291 291
285 283 283 282 281 281 279 278 281 278 279 273 278 281 277 276 279 280 281 282 281 282 282 282 282 282 282 282 282 283 282 282 281 281 281 281 280 280 280 280 280 280 281 282 281 281 281 282 282 282 282 282 282 282 283 283 283 284 283 282 282 281 282 282 282 281 281 281 281 281 282 282 282 283 283 283 283 284 284 284 284 284 284 285 286 286 286 287 288 288 289 289 289 289 290 290 290
284 283 283 282 280 279 278 278 276 277 272 275 280 280 281 275 280 281 281 282 281 282 281 281 282 282 283 282 282 282 282 281 281 280 280 280 280 279 280 279 279 280 280 280 281 281 280 281 281 281 281 281 282 282 282 282 282 282 282 281 281 280 280 280 281 281 281 281 281 281 281 282 282 282 283 283 283 283 283 284 283 283 284 284 285 285 285 286 287 287 288 288 288 288 288 288 288
285 285 281 283 282 277 276 269 274 272 270 273 276 278 281 274 277 279 280 280 280 283 283 282 282 282 282 282 282 281 281 281 280 280 280 279 280 279 279 279 279 279 280 280 280 280 281 280 281 280 280 280 281 281 281 281 281 281 281 281 281 280 280 281 280 280 280 280 280 280 281 282 282 283 283 283 283 284 284 283 283 283 283 284 284 285 285 285 286 286 287 287 287 287 287 287 287
284 282 283 277 272 272 271 268 273 271 272 278 277 278 279 279 281 282 283 281 280 281 282 284 283 283 282 282 282 281 280 279 280 280 280 280 279 279 279 279 279 279 279 279 280 280 280 280 280 280 279 279 280 280 280 280 280 280 280 280 281 281 280 280 280 280 280 280 280 280 280 280 281 281 282 282 282 283 283 283 283 283 283 283 284 284 284 285 285 286 286 285 286 286 286 286 286
283 285 279 274 271 270 266 267 263 267 272 276 278 279 277 278 281 280 281 281 281 281 281 283 284 283 283 282 281 280 280 279 279 279 279 279 279 279 279 279 279 279 279 279 279 280 279 280 279 280 279 279 279 279 279 280 280 280 279 280 280 280 280 280 280 279 280 280 280 280 280 281 281 282 282 282 282 283 283 283 283 283 283 283 283 283 283 283 284 284 285 285 285 286 285 285 285
284 282 284 281 273 265 268 265 272 273 273 275 276 274 270 275 280 278 280 281 280 279 280 282 283 282 282 280 280 279 279 279 279 279 279 279 279 279 279 279 279 279 279 279 279 279 279 279 279 279 279 279 278 278 279 279 279 279 279 279 280 280 280 280 280 280 279 279 279 279 280 280 280 280 281 282 282 282 283 283 283 282 283 282 282 282 283 282 283 283 283 283 283 285 284 284 284
281 280 282 280 280 277 277 269 266 265 270 270 272 275 276 280 280 280 279 279 280 280 280 283 282 281 280 280 281 280 280 280 279 279 279 279 279 279 279 279 279 279 279 278 279 278 279 279 278 279 279 278 279 279 278 278 278 279 278 279 279 280 281 279 279 280 279 278 278 278 278 278 279 279 279 280 280 280 280 280 281 281 282 282 282 282 282 282 282 281 281 281 281 284 282 282 283
282 283 279 281 282 280 271 272 270 270 269 273 268 276 279 279 280 279 279 279 279 280 280 281 281 280 279 280 280 280 280 280 279 279 279 279 279 279 279 279 279 279 278 279 279 278 278 279 279 279 278 278 279 278 278 278 278 279 278 278 278 278 278 278 278 278 278 278 278 278 278 278 278 279 279 280 278 278 278 278 278 279 279 280 281 281 281 281 281 281 280 280 280 281 281 281 281
283 278 282 283 283 282 280 274 269 263 269 272 270 276 277 278 275 278 279 279 279 279 279 280 280 279 280 281 281 281 281 280 279 279 279 279 279 280 279 279 278 278 278 278 279 278 278 279 278 279 279 279 279 279 279 279 279 279 279 279 279 279 278 278 278 278 278 278 278 278 278 278 278 279 279 280 278 278 278 279 278 278 278 278 278 279 279 280 280 280 280 280 280 280 280 280 280
282 281 283 284 279 278 279 272 271 269 267 268 271 274 275 278 281 277 279 278 280 279 279 279 279 280 280 281 281 281 280 279 279 279 279 279 279 280 279 279 279 278 279 278 279 279 279 279 279 279 279 279 279 280 279 279 279 280 280 279 279 279 279 278 277 277 278 278 278 278 278 278 278 279 279 279 278 278 279 278 278 278 278 278 278 278 278 278 278 277 278 278 279 279 278 278 279
286 286 285 284 283 279 276 279 275 274 269 266 271 272 275 279 281 281 283 281 281 280 279 280 281 281 281 282 282 281 281 281 280 280 279 280 280 280 279 279 279 279 279 279 278 278 278 279 279 279 279 279 279 279 279 279 278 279 279 278 278 277 278 278 278 278 278 278 278 278 278 278 278 278 278 278 277 277 278 278 278 278 278 278 278 278 278 277 277 277 277 277 278 278 277 277 278
282 283 281 284 278 281 278 277 275 276 266 267 271 274 274 276 279 282 284 283 282 281 281 281 281 282 282 282 282 282 282 281 280 280 280 280 280 280 279 279 280 279 280 280 280 279 280 279 279 279 279 277 278 278 278 278 278 277 277 277 277 277 277 277 277 277 277 277 278 278 277 277 277 277 277 277 277 277 277 277 277 277 277 277 277 277 277 277 276 276 277 277 277 277 276 276 277
285 285 283 285 280 277 276 277 278 272 274 272 268 275 278 280 281 282 281 281 283 283 283 282 282 282 283 283 283 282 282 281 281 280 279 280 280 280 280 280 280 280 281 281 282 282 281 279 278 277 277 277 277 277 277 277 277 277 277 277 276 276 276 276 276 276 276 277 277 277 277 277 277 277 277 277 277 277 277 277 276 276 276 276 276 276 276 276 276 276 276 277 277 276 276 276 276
Wind_Speed
6 5 3 1 3 1 1 6 2 2 3 1 1 1 0 0 0 2 2 3 1 1 1 1 3 2 0 1 1 3 3 3 5 4 0 2 2 4 5 5 2 2 7 7 8 8 8 9 12 12 12 12 13 13 13 13 13 12 12 11 11 10 10 10 10 10 10 9 10 10 9 9 9 9 9 8 8 7 7 7 6 5 6 6 7 9 10 12 13 12 12 12 12 12 12 12 13
3 4 2 0 0 1 0 1 3 3 6 3 1 1 2 1 1 2 0 3 1 0 2 1 0 1 4 6 1 0 1 6 6 1 4 3 4 4 6 6 3 6 7 6 7 8 8 8 11 12 12 12 11 13 12 12 13 12 12 11 10 10 10 10 10 10 10 10 10 10 9 9 9 8 8 7 7 6 6 7 6 5 5 7 8 9 9 10 12 12 11 12 12 11 11 11 11
3 4 2 3 3 4 2 3 1 2 5 2 2 4 1 0 2 3 7 4 2 2 4 1 1 0 1 1 1 2 0 0 2 2 3 3 2 1 4 6 4 4 7 6 7 8 7 8 11 13 12 12 12 13 13 13 13 12 12 11 10 10 9 9 9 8 9 10 10 10 9 9 8 8 8 7 6 6 6 5 5 4 5 7 8 9 9 9 10 11 11 11 11 10 10 10 11
1 3 2 2 1 3 0 4 5 6 4 4 1 2 1 1 3 5 4 7 6 1 1 0 0 1 1 1 1 0 3 2 3 2 1 1 2 3 3 6 4 4 4 5 7 7 7 9 12 12 13 12 13 11 11 11 13 12 11 11 10 10 10 9 9 9 9 9 9 9 9 8 8 7 7 7 6 6 5 5 4 4 6 7 8 9 8 8 10 10 10 10 10 10 10 10 10
2 1 2 3 3 1 3 1 4 3 2 5 3 4 3 4 2 3 4 2 4 2 1 0 0 0 1 0 1 0 0 2 2 2 2 3 2 3 4 4 4 5 6 5 5 6 6 10 11 11 13 13 15 12 11 10 12 13 12 12 11 10 10 10 9 9 10 10 9 8 8 7 7 7 6 6 6 6 5 4 4 5 6 7 8 8 8 9 10 9 9 9 10 10 10 10 10
4 1 4 2 0 2 5 2 3 1 2 5 1 1 2 4 2 1 7 7 1 0 1 1 0 1 0 0 3 0 2 3 1 1 1 1 6 2 3 4 5 5 4 4 4 5 6 11 11 11 13 14 16 14 12 12 13 13 12 13 11 11 11 10 10 10 10 10 9 8 8 7 7 6 6 6 6 5 5 4 5 6 5 6 7 7 7 8 8 8 6 7 8 9 9 9 9
1 4 4 4 2 4 3 3 1 2 1 4 1 2 3 3 6 3 4 4 1 3 1 0 0 0 1 2 2 4 1 0 1 0 2 5 5 0 2 3 4 4 4 4 4 4 5 10 11 13 12 13 14 14 13 13 14 13 13 13 12 12 12 11 11 11 10 10 9 9 8 7 7 7 6 6 5 5 5 6 6 6 6 6 7 7 6 6 6 5 4 4 5 7 8 8 8
1 0 2 2 1 4 3 1 0 2 2 4 1 3 4 2 1 0 2 1 3 2 1 1 1 1 1 3 1 2 2 2 2 4 5 4 0 1 2 4 4 3 4 3 3 3 5 9 11 12 11 12 13 13 13 14 14 15 13 14 13 13 12 12 11 11 11 11 10 9 8 8 8 8 7 7 6 5 5 6 6 7 7 7 6 6 5 3 1 1 4 4 5 7 8 8 7
5 6 1 3 2 3 3 1 2 2 6 1 5 6 7 3 3 0 1 1 2 0 3 1 1 2 1 3 2 3 3 1 4 4 2 1 3 1 2 3 5 4 4 3 3 3 4 7 10 11 11 11 12 12 13 15 14 14 15 15 13 13 13 12 12 11 10 11 11 10 9 9 9 9 9 9 8 7 6 6 7 7 7 5 4 5 5 4 3 5 4 6 7 7 7 8 7
2 2 1 2 3 2 2 1 2 1 2 1 2 4 2 0 0 1 0 1 1 1 2 1 0 1 1 3 3 2 1 3 5 0 3 2 1 2 2 1 3 5 4 4 3 4 4 7 9 10 11 11 12 11 12 13 13 13 14 14 14 11 12 11 12 12 11 11 10 10 10 9 9 8 9 9 9 8 8 8 7 5 3 4 4 4 5 5 7 6 10 10 8 8 7 7 7
2 5 2 3 4 2 2 1 2 4 3 4 6 7 7 1 1 0 1 2 0 1 5 2 1 1 1 3 3 4 4 5 2 0 0 1 1 3 1 0 0 3 5 4 4 3 4 4 8 9 9 10 10 10 10 11 12 12 13 12 13 11 10 10 12 11 10 11 10 9 9 9 9 9 9 9 9 9 9 9 7 5 4 3 3 3 4 4 5 5 9 9 7 7 7 7 7
1 2 3 3 2 3 2 1 4 6 7 2 1 2 1 1 1 1 1 3 2 3 2 2 1 3 1 3 2 1 7 5 1 1 2 2 1 1 1 0 0 2 3 3 3 3 3 3 4 7 8 8 9 9 9 10 11 11 10 11 11 10 10 10 10 10 9 9 9 9 9 8 8 9 9 9 8 8 9 8 9 8 6 3 1 2 2 3 5 8 8 8 8 7 7 7 6
4 1 6 6 1 1 1 0 1 3 3 1 0 0 0 0 0 1 2 2 0 2 2 5 1 1 1 0 4 6 3 5 4 3 4 2 1 1 1 1 1 1 3 3 3 4 3 4 4 5 6 8 8 8 8 8 9 10 9 10 9 9 9 9 9 9 8 8 8 8 7 6 6 7 7 8 9 8 8 8 7 8 8 6 3 1 1 4 6 9 8 8 7 7 8 7 6
3 4 2 1 1 2 2 0 1 1 1 1 2 3 2 0 2 1 4 0 2 1 1 0 1 1 1 2 7 3 4 3 5 3 3 2 2 2 2 1 1 1 2 4 5 4 3 4 4 5 6 6 5 6 7 8 9 9 9 9 8 8 8 8 8 8 7 7 7 6 4 3 6 6 6 7 9 7 6 5 6 6 6 5 4 2 1 10 9 8 7 7 7 7 7 7 6
0 2 6 5 1 1 2 2 2 2 1 0 0 2 4 3 1 3 2 0 4 3 2 0 1 1 2 2 7 3 3 5 6 5 3 2 3 2 2 1 1 0 1 3 4 4 4 3 4 4 5 6 6 5 4 6 8 9 9 9 8 8 8 8 7 7 6 6 6 5 3 4 6 7 5 6 7 6 5 6 6 4 6 6 5 4 2 10 8 7 7 6 7 7 7 7 5
4 5 4 2 0 1 1 2 0 2 2 1 2 3 0 1 1 1 2 1 2 1 1 1 0 1 1 1 6 5 4 7 5 4 2 2 2 1 2 2 1 1 1 1 1 1 1 3 3 4 5 6 5 5 5 4 6 8 8 8 8 8 8 8 7 7 6 5 5 4 4 3 5 5 6 5 7 7 6 5 5 4 4 5 4 5 7 9 8 7 6 6 6 7 8 6 5
2 3 1 3 0 0 1 1 4 0 3 3 5 5 5 3 2 2 0 1 3 2 2 1 2 1 3 5 3 4 6 4 5 3 3 2 5 5 3 3 6 4 5 4 2 3 2 2 3 2 4 6 6 5 4 5 5 7 7 7 8 8 8 8 7 7 6 5 4 4 4 3 3 3 4 3 5 5 6 7 6 4 4 5 6 5 8 8 8 7 6 6 7 7 8 7 5
2 2 4 1 1 2 4 4 7 1 0 3 4 1 1 5 4 3 1 1 2 2 3 5 3 4 3 4 2 3 4 4 5 4 4 3 6 7 7 6 6 5 5 5 3 3 3 2 3 3 3 5 6 5 4 4 4 6 5 4 4 5 6 6 5 4 5 3 3 2 2 3 3 3 3 4 3 3 6 8 7 6 5 6 7 6 9 8 7 7 6 6 7 8 8 4 4
4 2 1 2 5 2 6 3 5 1 4 3 2 3 1 4 0 2 3 6 4 7 5 1 3 5 5 4 7 7 8 8 8 8 7 8 8 7 7 6 7 7 7 6 5 3 3 4 3 5 5 4 5 5 4 4 4 4 5 5 4 5 5 5 4 3 3 3 3 2 3 2 3 3 3 4 3 5 5 8 7 6 5 6 7 7 8 9 7 6 6 7 8 8 4 4 4
1 2 0 3 7 3 5 3 2 6 0 4 4 1 0 4 0 1 1 5 6 5 7 3 0 5 7 7 7 8 10 10 9 9 9 8 8 7 7 7 8 7 7 6 7 5 3 4 4 4 4 4 5 5 4 4 4 3 5 5 5 4 4 5 3 4 3 4 4 3 3 2 3 4 3 6 6 3 4 5 5 6 6 6 7 4 6 7 7 6 7 8 6 4 3 3 2
0 2 2 1 2 0 1 6 6 5 2 1 0 1 4 4 2 1 1 6 8 8 3 4 4 5 7 7 8 9 11 12 12 12 11 10 8 6 6 6 6 8 7 8 6 7 5 4 4 5 4 4 6 5 5 5 4 4 4 5 5 4 3 3 8 5 4 4 4 5 3 3 4 3 2 2 3 3 2 3 2 2 0 2 5 3 3 4 4 4 4 4 3 3 3 2 1
3 3 1 3 1 1 5 4 4 1 2 1 1 5 5 2 0 1 1 4 9 4 4 1 2 4 4 6 6 8 10 11 12 12 11 9 9 9 9 8 7 4 6 7 8 9 8 6 5 4 5 6 6 6 6 5 5 5 4 5 6 5 5 4 2 5 5 3 6 4 3 4 4 3 2 3 4 4 2 2 4 2 2 2 3 4 3 5 3 3 4 4 2 2 3 2 2
1 2 1 3 2 2 1 1 3 1 1 1 4 2 3 1 6 3 3 7 8 5 1 0 3 6 5 8 6 9 11 11 10 11 11 12 12 10 10 8 8 10 8 7 7 7 8 7 7 5 6 6 6 5 5 5 5 5 4 4 4 5 4 1 4 4 5 9 7 6 6 4 2 3 4 3 4 3 2 3 3 3 4 4 4 5 4 4 4 4 3 3 2 3 3 2 2
2 3 2 3 4 4 3 4 2 1 2 5 1 2 3 4 10 1 3 5 5 4 4 9 9 10 10 11 9 10 8 9 8 7 6 7 8 9 8 9 9 6 5 8 8 8 8 9 7 6 5 4 3 4 4 4 4 4 4 4 5 4 7 8 4 2 1 1 3 4 3 5 6 5 4 3 2 3 5 5 0 2 2 1 1 3 6 4 4 3 3 2 2 2 3 2 2
2 2 0 2 0 4 4 4 6 3 6 5 1 4 6 2 3 4 7 5 1 5 8 9 9 11 11 12 12 10 11 11 11 9 7 7 6 5 7 8 9 8 11 11 9 9 10 9 7 6 4 3 2 3 4 2 2 3 2 3 3 3 2 5 7 7 4 2 4 7 11 7 5 5 5 5 3 4 1 2 3 4 2 3 3 1 3 4 4 4 3 3 2 3 2 3 1
3 3 0 2 3 4 5 6 5 4 3 2 2 8 5 3 2 2 4 2 2 3 11 7 9 13 11 11 10 10 10 11 10 12 10 7 9 13 14 11 10 12 10 9 10 9 9 10 8 6 3 2 2 2 2 2 2 3 2 1 1 2 2 0 0 1 2 2 4 3 2 3 6 7 6 5 5 4 4 2 2 3 6 7 6 6 5 5 5 4 4 3 4 3 3 2 1
3 1 2 3 7 6 4 2 4 1 3 3 3 6 3 2 3 3 4 3 1 10 9 7 11 11 10 9 9 9 11 12 11 7 10 11 11 12 12 11 12 10 9 11 11 10 9 9 9 8 4 0 2 2 1 1 1 1 1 1 1 0 1 3 4 5 2 1 2 4 4 7 7 7 6 5 5 5 4 3 3 2 1 2 2 2 3 6 6 6 6 5 4 4 2 0 1
2 1 3 5 6 5 7 5 8 1 3 2 6 5 1 2 1 3 3 4 4 10 8 9 10 9 8 8 9 7 9 8 8 10 14 14 12 10 11 11 12 12 11 12 10 9 10 11 10 10 7 2 3 2 3 3 3 2 2 1 1 1 0 1 1 1 3 3 1 0 1 2 1 2 2 6 8 6 4 6 5 2 3 4 5 3 2 0 1 1 2 3 3 2 2 1 0
0 1 5 6 8 7 3 3 1 0 1 2 5 1 2 0 4 2 3 2 8 10 8 8 9 8 8 7 7 9 9 8 9 11 10 7 7 8 9 9 10 10 7 8 10 9 11 10 10 11 9 7 4 4 4 3 3 4 2 1 1 1 2 3 4 5 5 4 3 3 3 3 3 4 3 1 2 2 5 8 6 7 6 5 4 3 3 3 3 4 3 3 3 3 1 1 0
0 3 1 7 6 8 4 0 2 1 1 2 2 4 5 4 8 3 3 3 5 10 8 6 6 7 7 7 7 8 9 10 12 10 8 8 8 8 9 10 9 8 8 8 10 13 10 8 7 8 10 10 9 6 3 4 3 4 4 3 2 1 0 1 3 3 2 3 5 5 3 0 1 1 3 2 3 2 1 3 2 4 6 7 5 5 5 4 4 4 3 3 3 3 3 3 2
1 1 2 1 4 5 2 1 1 1 1 1 1 3 7 8 4 1 3 2 5 7 6 7 7 7 7 7 7 8 9 8 9 10 10 10 8 7 8 9 11 10 8 10 12 10 10 10 9 9 11 11 10 9 9 7 7 7 7 7 7 7 7 6 7 7 7 5 6 6 6 3 2 3 4 5 4 3 4 5 4 6 3 1 3 3 3 2 3 5 5 5 3 2 3 3 3
2 2 4 3 3 6 9 2 1 1 2 4 3 1 8 7 9 5 4 4 10 9 7 7 7 7 7 7 8 8 7 7 9 10 10 9 9 9 9 11 10 10 11 9 9 10 12 11 11 11 12 12 11 10 9 9 9 9 8 8 9 9 8 9 9 9 9 8 8 7 7 7 7 8 8 5 2 2 3 4 6 4 3 3 3 3 3 5 3 4 3 4 4 4 3 5 2
4 2 4 3 0 5 8 1 2 3 0 3 2 4 3 7 3 4 11 10 9 10 7 7 7 7 7 7 7 6 8 10 10 11 12 10 9 8 8 9 10 10 9 11 11 10 12 12 12 13 13 11 10 11 11 11 11 12 11 11 12 12 11 10 10 10 11 10 10 10 11 11 11 9 7 5 6 7 6 5 6 4 1 1 4 3 3 3 4 4 4 4 4 5 5 4 3
4 1 4 3 2 2 3 5 1 4 3 0 3 1 6 8 11 7 12 9 9 9 7 6 7 6 6 6 7 8 8 9 11 11 12 10 8 10 8 8 9 9 9 10 9 10 9 9 9 11 10 10 9 9 9 9 9 11 11 10 12 12 11 10 10 11 11 10 11 11 12 12 12 12 10 9 8 7 7 6 5 6 5 5 4 1 1 3 4 5 6 4 3 3 4 4 6
3 2 1 6 1 4 7 2 2 5 4 4 2 1 8 11 9 8 8 7 10 8 6 6 6 6 6 6 7 7 8 10 9 8 9 9 10 9 8 9 9 9 9 9 10 10 10 10 10 12 12 11 10 9 8 9 9 9 9 11 12 11 10 10 10 11 10 10 11 11 12 12 12 12 12 11 9 8 8 7 7 6 6 6 6 6 7 7 7 7 5 2 1 1 1 2 2
6 5 4 3 2 4 4 6 3 1 4 3 2 6 8 8 8 6 8 7 10 7 5 6 5 5 5 6 6 7 7 8 6 6 7 7 8 9 9 8 7 7 8 9 11 12 12 12 9 11 11 9 8 9 8 8 10 10 10 10 12 11 10 10 11 11 9 11 10 11 12 12 11 11 12 11 11 10 10 9 8 7 6 5 5 6 5 5 5 5 5 5 4 4 4 5 2
2 2 2 4 5 6 3 2 5 0 1 6 5 4 4 8 3 5 5 4 8 6 6 5 4 5 5 5 6 5 6 5 4 4 6 8 10 9 7 7 7 8 10 11 12 12 11 10 11 13 9 10 10 9 9 8 8 7 10 11 10 9 9 10 12 10 12 11 12 12 12 11 11 12 12 11 11 9 9 8 8 7 7 7 6 6 4 4 3 3 3 4 3 4 2 4 4
1 1 2 5 3 8 3 2 2 1 3 3 0 2 7 5 4 6 4 6 8 3 5 5 5 4 4 5 5 5 2 2 6 8 9 8 9 9 7 7 9 12 11 10 11 10 9 10 11 10 9 10 10 8 6 9 6 5 8 8 9 8 9 10 9 11 11 10 12 12 11 11 12 12 10 10 10 10 10 10 10 10 8 7 6 4 5 4 5 6 4 3 3 2 1 2 1
0 3 2 2 7 4 8 2 2 1 2 8 2 2 7 2 4 5 7 7 4 4 3 3 4 5 4 4 4 3 5 6 5 5 6 7 8 8 7 8 8 7 7 10 8 10 11 11 10 9 9 9 9 8 8 7 6 7 7 5 7 8 7 7 8 8 9 10 12 12 11 11 11 10 10 10 10 10 10 9 8 7 8 7 7 7 7 7 6 7 5 3 3 1 0 1 2
4 1 1 8 3 1 6 2 2 2 1 2 1 4 8 3 3 7 5 3 3 4 5 5 4 5 4 3 2 3 5 4 6 6 7 7 7 6 7 9 8 7 8 9 10 10 9 10 10 10 10 9 9 9 7 5 6 5 7 8 9 10 7 5 8 10 11 13 14 11 11 11 12 12 12 11 10 10 10 10 8 8 9 8 8 9 10 10 9 7 3 2 1 2 2 2 1
2 5 5 4 2 4 8 4 2 1 0 1 0 3 8 1 3 2 2 3 4 3 5 5 5 3 2 1 3 3 3 3 4 5 6 6 7 8 8 7 5 8 9 9 9 9 7 9 9 9 9 9 8 8 8 5 6 6 5 6 6 6 9 10 12 12 10 9 10 12 11 10 11 11 10 11 10 10 9 9 8 8 8 8 7 8 8 7 8 7 6 5 5 2 5 3 2
2 6 10 8 6 7 4 3 2 5 2 2 1 2 3 3 2 4 2 1 3 2 5 4 3 3 2 4 3 2 2 2 2 3 4 4 4 5 7 7 8 8 9 8 6 7 7 8 8 9 9 9 9 9 8 9 10 9 10 12 12 11 12 12 11 9 10 10 9 5 11 11 10 11 10 11 11 10 10 10 9 10 10 9 9 8 7 8 10 9 8 6 6 4 2 3 3
1 5 7 10 6 3 2 1 3 1 1 1 1 1 4 5 2 4 3 2 3 2 2 1 1 1 1 1 1 1 1 3 3 3 4 5 6 7 7 7 6 7 6 4 5 6 7 7 7 9 9 8 8 8 8 8 12 11 12 11 9 9 10 7 4 5 6 6 7 10 9 10 11 12 11 11 11 10 10 10 10 10 9 9 8 9 9 8 7 6 6 8 6 5 4 5 5
4 1 3 3 3 4 4 4 5 2 1 3 1 1 4 4 7 2 5 5 3 2 1 1 1 1 1 0 0 0 1 1 2 3 3 3 5 5 5 4 5 5 4 4 6 6 8 7 8 9 8 9 8 7 10 8 11 10 11 11 10 10 10 7 5 6 6 6 10 10 9 9 10 11 11 11 11 10 10 10 10 10 10 9 8 8 8 7 7 7 6 5 6 7 6 5 3
3 2 4 5 6 4 4 4 3 0 1 6 4 0 1 3 5 1 4 5 3 4 5 4 3 2 2 1 1 0 0 1 1 3 3 3 4 4 3 4 3 4 4 5 5 5 5 6 7 8 10 9 8 8 9 9 9 9 9 9 11 7 7 6 5 6 7 7 11 9 10 9 10 11 11 11 11 10 10 9 9 9 9 9 7 8 7 7 8 8 9 9 8 6 6 5 4
1 6 7 7 7 6 4 4 4 1 1 5 4 2 3 6 5 1 1 4 5 8 8 6 5 4 4 3 2 1 0 1 1 2 2 2 2 2 2 1 3 4 4 4 4 4 5 5 8 11 10 8 6 8 9 9 8 8 11 10 11 7 6 6 6 8 7 6 9 8 7 8 8 9 10 10 11 11 11 10 10 10 9 7 7 7 7 8 8 8 7 6 7 7 6 6 5
7 5 6 5 7 4 2 6 2 2 2 7 7 4 4 5 5 7 6 6 4 7 2 3 3 4 4 4 3 3 1 1 1 1 1 1 1 1 2 3 3 4 3 4 5 5 4 7 7 12 7 7 7 8 8 10 8 8 9 9 9 9 6 6 9 9 7 8 9 8 7 7 7 7 7 8 9 8 9 9 9 9 8 8 9 9 9 7 7 6 6 6 7 7 6 6 6
6 2 3 3 1 5 3 3 4 1 6 5 1 2 1 6 6 5 5 1 2 7 10 11 9 8 7 5 4 3 2 1 0 1 1 1 3 3 2 4 3 3 3 5 5 4 6 6 7 11 8 7 7 6 8 8 8 9 8 8 10 8 8 9 10 9 8 9 8 8 6 7 8 7 8 8 9 9 8 8 7 7 8 8 9 7 8 7 7 7 7 6 6 5 5 5 4
4 6 5 4 3 5 2 3 2 5 5 1 2 2 0 8 8 0 3 3 2 4 3 11 12 10 8 6 5 3 1 1 1 1 0 1 2 2 3 3 3 3 4 4 5 4 5 6 6 11 8 6 6 5 8 7 8 8 7 8 8 8 9 9 9 9 6 8 7 8 9 8 7 9 9 9 9 9 7 8 8 8 7 7 6 7 7 8 7 7 7 7 7 7 6 5 5
4 6 5 5 0 1 3 4 1 5 4 3 0 1 3 3 7 2 4 2 2 3 5 4 8 10 10 7 5 3 2 2 3 2 2 1 1 1 1 2 2 2 4 4 4 4 4 5 5 9 6 5 4 6 6 8 8 7 6 7 7 7 8 8 7 7 6 6 6 7 7 7 7 8 8 8 7 7 7 6 6 7 6 5 5 5 5 5 6 6 6 7 7 6 6 5 5
7 1 7 7 8 5 4 4 5 5 5 2 4 1 6 4 4 0 4 4 3 3 5 6 5 5 5 4 4 3 3 3 3 3 3 3 2 2 2 2 2 3 3 4 4 4 4 5 5 7 7 4 5 5 5 7 7 6 6 6 7 6 8 8 7 6 6 6 5 6 5 5 6 5 5 5 6 7 7 8 8 8 8 7 7 7 7 6 6 5 5 5 5 5 7 6 6
0 2 5 6 7 4 3 4 3 2 1 3 1 5 4 5 0 2 1 2 1 2 1 6 8 5 4 4 5 5 4 4 4 4 3 3 3 3 2 2 2 3 3 3 4 4 5 4 4 5 5 4 4 5 5 5 5 5 6 7 7 6 6 6 6 5 5 4 4 5 4 4 4 3 3 3 4 4 4 5 6 7 7 8 8 8 8 7 7 6 6 6 7 4 6 6 6
3 4 4 5 1 4 4 2 2 2 3 9 2 6 4 1 0 0 1 0 1 0 2 5 7 6 4 6 6 6 6 5 5 5 4 4 3 3 3 3 3 2 3 4 4 3 4 5 5 5 4 4 4 4 4 4 5 6 6 6 6 6 6 6 6 4 4 3 3 3 4 3 2 2 3 2 3 3 3 4 4 4 5 5 7 7 7 8 8 7 7 8 7 6 6 6 6
8 2 7 1 2 3 3 4 1 2 4 7 3 8 3 3 6 1 0 1 2 3 4 4 5 4 6 8 7 9 9 7 4 4 4 4 4 5 4 3 3 4 4 4 4 3 3 4 4 5 4 5 3 3 4 4 5 5 5 5 5 5 5 4 4 4 2 4 4 4 4 6 7 5 5 5 5 6 5 5 5 5 5 5 5 5 5 6 6 6 7 6 6 6 7 6 5
3 2 3 4 2 1 1 4 4 2 4 6 4 1 5 8 6 2 6 7 8 7 5 5 8 8 10 9 10 8 5 3 5 6 6 5 5 5 5 5 4 3 3 3 3 3 2 2 2 4 5 4 4 3 3 3 3 4 4 4 4 4 4 4 3 3 4 6 6 7 7 6 6 7 7 8 8 8 8 8 8 9 8 8 7 7 6 6 5 6 5 6 6 6 6 7 6
1 2 2 1 1 1 4 5 2 4 5 1 7 3 9 6 6 14 11 14 11 9 8 12 13 12 12 11 10 9 8 8 7 7 7 6 6 6 6 6 5 5 4 4 4 2 3 3 4 3 3 3 3 3 3 4 3 4 4 4 4 4 4 4 4 5 6 5 4 5 5 6 6 5 5 5 5 6 7 8 7 8 8 8 9 8 8 8 8 7 7 7 6 6 6 6 7
2 2 2 0 1 2 3 1 4 4 4 4 4 10 3 4 4 10 11 13 14 16 16 13 12 12 12 10 10 10 10 9 8 8 8 7 6 5 5 4 5 4 3 4 4 4 4 3 4 4 5 4 4 3 4 4 4 3 4 4 3 4 4 4 5 5 6 5 5 5 4 4 4 5 4 6 6 6 6 6 6 7 7 7 7 8 6 6 6 7 7 6 7 7 8 8 7
8 11 10 11 7 3 4 8 3 1 3 6 3 13 5 3 2 4 2 3 12 14 14 14 12 13 13 12 10 10 9 8 7 7 6 6 6 5 5 4 4 4 4 4 4 4 4 4 3 3 4 4 4 3 3 3 2 3 5 4 4 3 3 4 4 4 5 5 5 5 4 4 5 5 5 6 6 6 5 6 6 7 7 7 7 6 7 6 7 8 7 6 7 8 8 9 8
Wind_Direction
336 351 322 2 67 117 55 360 136 335 62 18 10 2 202 168 234 360 247 334 357 250 201 338 129 99 283 207 185 196 202 115 211 114 56 238 236 230 210 213 267 178 166 166 176 176 183 186 183 182 181 177 180 175 174 170 166 166 167 165 163 162 158 156 153 151 158 161 150 145 148 145 141 139 136 133 128 118 106 99 86 85 79 98 107 104 97 92 90 85 80 75 67 60 55 52 50
322 341 9 199 48 57 300 137 96 353 41 64 233 92 249 283 30 219 248 201 207 334 320 282 7 73 42 69 128 151 269 228 170 196 281 239 273 258 205 189 186 173 165 163 173 178 179 185 185 181 182 177 177 170 176 173 171 169 169 169 167 166 162 159 159 159 162 166 158 153 150 150 148 143 140 134 129 123 115 100 93 92 88 105 112 111 100 98 93 90 83 78 71 63 58 54 51
339 7 25 35 33 71 101 33 284 45 87 75 275 205 326 87 220 261 228 214 219 313 286 299 140 43 57 5 9 125 283 298 287 274 243 322 351 284 164 171 173 178 165 165 169 178 181 183 184 180 183 179 180 172 176 174 172 171 171 171 171 170 167 166 162 163 168 171 165 160 153 152 153 150 144 138 136 128 116 104 107 96 92 109 115 111 104 102 95 91 85 78 72 64 56 52 49
78 32 120 54 263 31 58 28 83 123 107 195 319 289 192 171 247 221 250 254 273 314 337 304 103 222 131 12 246 44 286 335 198 165 299 317 195 278 172 153 160 149 154 169 174 176 182 188 184 180 183 181 182 174 172 174 174 170 173 174 177 176 174 172 166 171 168 176 172 164 157 158 159 155 150 144 141 134 129 120 117 112 107 117 119 116 112 101 95 83 79 75 70 64 55 46 44
74 8 79 98 109 351 103 100 134 103 110 207 98 268 255 215 244 280 272 267 289 180 68 218 88 273 173 137 171 120 226 240 316 210 265 267 307 279 167 135 133 146 168 181 175 178 184 188 189 183 183 184 184 176 174 175 176 177 176 178 181 182 179 178 175 175 175 174 175 169 165 165 160 158 153 150 148 146 135 132 127 114 121 130 127 127 119 104 92 84 76 69 66 59 51 43 39
63 54 11 88 42 155 56 63 47 53 216 151 86 360 262 239 230 298 279 302 259 140 174 72 173 329 352 266 184 189 209 32 206 272 201 288 343 309 167 131 130 153 166 180 182 177 185 191 191 188 187 185 187 181 175 178 181 185 179 183 185 185 185 182 180 184 183 179 177 176 174 169 166 165 160 154 152 148 139 133 129 123 128 128 126 125 130 110 88 81 64 68 67 63 53 45 37
332 48 360 29 39 48 165 121 173 182 306 163 19 264 281 296 224 342 327 348 152 76 316 300 77 52 52 315 330 244 183 68 96 257 173 295 326 248 144 124 126 155 162 177 182 185 186 194 196 193 190 187 188 186 178 182 186 186 187 188 189 190 191 188 187 189 190 185 184 186 176 175 179 175 168 157 152 146 156 139 138 138 135 131 139 133 127 105 97 81 66 79 69 68 61 50 37
79 115 314 109 303 47 44 169 240 168 1 179 245 273 274 248 232 161 284 74 314 46 354 259 282 117 253 64 29 281 339 207 265 290 281 286 124 122 131 137 134 163 167 169 182 184 191 199 201 199 197 190 192 188 181 184 187 189 188 192 193 193 193 192 193 194 193 192 192 187 184 187 187 183 173 158 149 156 153 148 142 148 150 148 138 138 116 102 97 132 102 112 94 80 68 54 41
8 91 254 70 46 29 57 58 273 246 289 307 282 226 272 279 179 120 305 252 301 288 314 319 271 31 250 350 221 267 294 289 291 280 309 65 109 168 123 152 151 158 173 174 176 181 188 202 205 204 203 197 197 192 189 188 191 192 192 195 194 195 196 197 197 197 195 199 192 196 190 195 197 190 179 163 158 157 160 157 152 155 150 132 108 71 51 48 328 115 203 116 108 86 73 58 46
43 43 313 108 139 41 19 306 70 179 247 233 257 285 258 233 181 128 208 338 253 292 268 328 226 339 322 301 316 15 10 331 299 85 7 52 100 104 128 153 160 161 164 185 182 179 190 205 207 211 207 204 201 198 194 192 194 196 196 198 196 198 199 199 200 198 198 200 200 199 197 202 204 193 192 172 167 160 162 160 158 159 157 125 93 61 42 29 14 2 90 110 100 87 72 59 52
7 14 138 74 32 89 119 253 272 314 283 314 292 247 247 245 184 109 205 257 4 216 316 165 30 266 34 285 224 258 302 311 351 300 308 336 58 130 148 285 93 162 175 185 193 180 187 199 208 215 217 213 207 204 199 198 198 198 199 200 201 198 202 200 204 203 199 201 204 204 205 208 203 199 196 180 173 166 165 165 152 150 151 130 90 90 46 13 354 85 104 101 95 83 70 64 59
346 25 6 101 111 145 225 145 280 284 303 323 82 330 167 143 147 20 332 7 334 326 237 110 339 151 20 332 310 301 303 0 272 281 312 340 41 36 138 84 57 157 172 191 192 202 192 193 201 216 221 219 219 211 206 204 203 202 200 203 203 201 203 203 205 209 203 204 205 208 209 208 202 203 198 187 178 182 172 172 163 161 160 156 116 52 49 20 307 111 105 100 97 84 74 67 58
101 83 73 76 175 136 144 170 255 297 334 331 280 303 261 95 330 201 236 231 55 12 357 205 128 83 304 238 274 321 12 322 306 292 304 344 1 347 26 57 40 172 162 170 183 210 205 198 199 205 212 217 224 220 212 209 207 207 201 200 204 204 205 206 206 208 211 208 208 211 215 213 187 202 200 193 185 193 188 180 174 174 169 165 164 145 32 329 71 108 107 106 100 94 85 74 63
112 181 124 145 37 119 146 252 344 119 305 264 252 283 326 185 225 202 133 296 283 139 247 276 113 157 286 21 316 337 271 276 313 331 333 6 29 41 52 24 44 156 200 170 193 200 204 206 199 201 204 208 212 219 222 214 207 208 207 202 205 206 202 208 210 209 214 216 214 217 215 186 176 195 197 196 185 202 196 183 177 195 176 175 166 173 300 96 114 112 114 112 104 98 89 79 67
110 149 82 117 76 138 239 98 185 133 214 169 268 342 360 257 115 129 184 120 302 212 315 168 226 72 256 348 288 258 264 299 327 332 357 33 24 34 14 43 48 48 204 196 203 191 207 201 204 202 204 204 205 205 203 217 214 206 206 203 204 206 203 209 214 214 216 221 218 216 190 169 177 186 196 198 185 205 187 181 175 177 187 184 190 155 127 119 118 122 118 113 107 97 89 79 75
136 86 77 101 246 130 231 152 347 112 252 186 299 244 229 301 167 63 273 175 256 321 26 238 20 227 261 173 245 265 273 315 318 333 21 27 350 357 6 1 4 360 340 335 301 283 240 218 214 207 206 209 208 200 199 200 214 212 206 203 204 206 206 206 212 216 216 219 217 202 177 163 174 184 187 183 183 205 197 167 172 167 185 204 156 160 128 129 127 128 127 118 109 98 89 83 76
62 80 47 30 323 176 246 156 145 203 254 271 299 34 23 301 285 220 180 86 282 290 358 247 208 9 204 222 272 290 301 312 338 357 28 359 6 342 346 359 355 351 11 8 354 328 304 272 248 231 216 212 212 208 203 199 197 205 212 210 207 204 208 209 205 208 212 215 212 193 171 162 168 172 183 181 190 200 185 173 179 186 187 159 146 147 137 137 138 138 136 123 113 99 89 77 50
55 61 113 44 204 123 199 177 188 180 313 295 349 48 10 323 332 303 355 47 39 306 274 285 294 252 248 264 280 303 316 8 353 0 352 349 11 349 356 352 2 336 335 331 352 340 304 261 249 246 236 221 213 211 205 201 191 190 202 200 203 212 207 210 207 200 196 197 187 164 168 163 164 175 175 188 185 192 184 182 191 192 182 154 146 153 143 148 148 148 142 132 116 99 87 69 50
84 136 80 251 186 239 157 199 203 103 283 242 265 304 178 246 28 311 5 306 3 341 308 207 276 305 333 331 332 359 356 21 16 19 9 12 10 3 344 336 339 337 334 337 325 336 280 280 238 226 223 214 217 213 206 197 189 177 199 199 191 201 204 195 195 194 185 187 169 164 160 161 164 175 188 194 189 192 191 186 195 194 188 163 154 160 150 152 153 154 142 119 96 87 72 72 64
207 114 342 254 209 249 223 187 225 199 124 298 312 356 106 258 149 289 330 291 326 293 292 342 348 309 316 305 339 347 11 12 24 25 25 18 9 359 350 343 332 329 314 309 307 300 258 247 249 228 221 211 212 213 207 194 187 172 188 194 185 188 203 188 189 179 189 180 177 173 161 162 162 175 210 196 188 190 200 193 204 204 189 163 163 154 147 146 144 148 120 98 81 71 77 55 56
268 79 172 231 197 61 269 187 237 237 161 234 261 302 327 296 216 41 223 355 305 284 210 212 298 300 301 331 360 13 25 26 21 27 28 22 15 21 10 344 335 319 318 309 313 309 301 265 244 238 218 208 205 209 204 203 186 178 179 186 178 175 199 222 183 181 192 183 182 173 166 157 167 163 169 182 183 179 198 169 200 217 226 189 141 142 116 133 117 102 83 80 96 105 86 61 50
115 210 195 159 123 294 252 206 212 181 194 167 314 340 281 317 53 188 135 268 273 284 93 177 251 275 336 7 358 31 33 34 25 26 22 20 13 0 356 349 340 329 331 352 340 327 327 311 272 245 218 212 205 204 203 192 178 190 178 186 174 166 179 199 265 179 182 207 172 170 149 161 164 152 150 177 162 155 205 197 188 191 158 184 128 131 115 118 103 109 122 119 103 96 100 97 71
256 313 283 202 194 252 278 334 191 103 341 319 311 253 336 29 287 236 212 217 245 65 110 68 44 34 78 70 39 30 28 25 21 22 15 12 3 359 359 350 350 346 342 335 327 324 320 327 316 273 237 214 212 206 200 188 196 191 180 172 192 170 143 220 197 223 232 186 174 173 177 164 160 158 158 177 170 148 184 207 191 167 184 180 158 147 152 124 134 135 132 130 122 113 97 85 78
120 242 344 318 171 221 245 287 85 333 147 267 201 352 301 301 312 92 251 267 294 324 28 74 75 58 48 54 36 42 33 25 16 15 18 12 3 351 353 346 341 329 341 343 342 330 327 323 317 304 265 237 210 198 199 196 188 182 179 173 190 202 189 222 241 239 244 226 177 134 154 177 175 166 171 173 191 148 187 182 148 171 161 185 128 197 159 133 121 122 133 128 133 124 137 111 92
150 277 237 261 208 246 284 281 299 279 259 262 307 295 263 187 233 9 278 47 351 27 52 65 67 60 51 51 38 30 28 19 14 3 9 12 3 347 1 356 352 351 0 350 338 339 335 324 320 306 275 242 226 192 199 181 164 176 175 178 183 155 219 216 226 203 190 195 237 212 175 167 159 171 171 179 172 166 161 314 188 181 196 159 141 134 137 148 145 149 163 163 159 160 155 161 132
179 221 165 275 276 295 287 310 268 253 267 157 338 273 292 257 259 238 319 35 325 55 58 46 59 54 47 48 40 34 29 23 9 12 4 351 1 10 8 2 353 3 348 333 343 344 336 332 329 323 296 238 203 189 173 151 159 169 169 178 140 139 205 75 65 240 288 269 210 193 297 199 170 163 168 167 172 181 162 146 282 259 197 178 174 185 174 153 172 160 162 167 173 179 191 210 143
164 232 220 296 283 337 302 232 296 25 260 186 237 287 300 321 34 288 28 333 294 64 58 41 59 57 48 46 40 33 33 23 15 351 12 11 13 13 356 357 4 350 342 351 351 348 336 342 349 348 331 201 142 151 114 113 97 123 87 89 94 220 162 211 255 315 28 28 292 306 185 170 175 169 169 179 184 175 162 166 200 158 299 329 319 170 150 186 176 179 183 184 189 185 209 88 132
77 200 330 297 317 274 258 282 279 268 302 158 188 252 312 291 114 215 10 328 48 82 51 44 52 53 45 42 43 33 37 22 15 21 20 11 6 358 356 1 350 348 356 350 346 338 346 357 355 2 357 51 96 91 79 68 63 64 78 80 37 59 88 254 297 313 297 309 34 40 174 127 59 348 283 184 170 166 176 182 180 190 225 202 192 203 178 71 94 88 115 137 139 141 141 106 86
119 49 326 302 342 337 325 283 349 141 266 136 156 309 306 360 227 126 333 5 61 71 62 48 50 48 43 39 39 37 31 20 22 29 18 6 355 357 358 356 350 347 345 340 338 351 5 358 1 5 11 22 54 80 90 87 85 80 77 80 91 115 187 220 227 233 232 230 237 207 205 197 171 172 159 154 299 249 190 180 190 203 214 197 188 157 129 138 135 137 113 107 107 108 124 217 94
79 31 92 328 357 322 319 13 357 21 255 122 180 302 275 267 249 327 345 53 75 59 54 49 49 41 38 35 36 35 28 25 26 23 10 5 360 358 0 352 355 356 344 344 353 9 2 3 4 12 14 26 24 25 48 94 113 116 119 125 113 113 351 245 238 256 247 250 223 228 241 59 242 147 146 183 180 198 272 272 256 224 210 203 175 170 175 159 148 148 148 135 145 159 206 228 244
250 259 66 265 2 278 275 97 310 357 51 34 110 213 286 275 293 76 349 332 84 72 52 46 41 37 33 30 32 34 29 30 25 17 11 6 3 1 360 357 360 358 358 2 4 353 8 14 10 22 15 27 27 29 27 32 30 39 35 34 32 21 20 16 8 7 356 354 360 351 335 294 253 203 190 184 182 176 186 204 209 226 204 112 134 138 140 136 155 178 157 171 157 187 204 228 212
15 23 299 326 164 279 303 330 139 150 358 9 94 274 249 271 288 53 318 24 72 77 57 46 40 37 30 25 30 28 25 19 22 21 14 5 6 1 3 1 359 4 8 358 358 3 17 17 16 25 22 27 30 36 43 49 54 54 52 47 45 40 40 33 27 25 20 23 23 20 16 20 15 6 358 343 282 206 197 206 223 220 171 153 133 132 142 176 176 167 182 170 179 226 200 248 203
352 159 270 276 323 264 334 9 328 329 144 24 121 251 329 303 252 73 13 27 67 87 65 47 44 38 32 30 29 26 20 17 19 15 8 5 3 5 4 4 6 2 4 9 9 8 18 14 18 24 22 20 27 36 47 55 59 62 62 58 59 55 50 44 40 40 42 40 33 32 30 34 25 18 18 33 22 4 352 337 353 10 30 147 157 144 173 172 170 180 185 210 205 208 194 234 246
289 31 220 206 202 264 269 304 44 5 83 258 1 224 245 261 294 19 21 24 67 79 74 58 49 46 34 34 34 30 29 23 20 6 359 1 358 4 7 7 6 5 11 15 15 20 18 16 21 25 23 22 25 32 42 55 61 66 66 64 60 59 54 53 44 47 41 37 39 38 39 40 34 30 35 35 39 28 24 20 21 24 19 2 350 344 201 156 176 181 206 210 215 196 208 216 236
219 170 247 286 257 221 252 314 268 13 17 349 334 254 277 276 293 38 24 21 76 74 75 67 58 47 39 40 36 32 32 31 16 0 356 357 5 6 10 9 10 13 16 15 20 23 26 23 24 27 25 18 23 30 35 49 52 61 63 62 59 56 51 52 49 52 41 36 41 33 36 39 33 35 38 37 46 43 43 43 44 32 36 29 26 18 12 4 360 350 330 360 23 352 328 249 277
218 189 188 173 208 243 214 241 284 105 301 307 231 250 270 287 299 19 16 33 78 82 72 69 61 53 52 46 41 39 32 32 6 359 358 5 11 11 11 5 13 19 22 21 27 28 26 25 25 32 26 16 26 38 35 40 52 45 49 51 49 42 45 45 46 47 42 40 34 35 39 38 34 36 34 32 39 41 45 39 40 29 37 58 58 41 23 26 15 12 10 1 352 340 9 15 34
119 110 125 209 228 279 288 271 256 359 328 248 243 239 256 274 339 358 5 57 66 72 76 74 61 59 49 49 45 39 43 32 343 357 8 12 15 13 6 9 12 29 28 25 32 29 28 26 32 31 14 23 34 32 35 39 42 47 51 55 58 46 46 48 47 37 43 39 32 34 35 36 34 36 31 32 35 40 47 41 38 36 37 44 47 44 40 45 48 86 73 65 31 10 345 20 358
163 166 193 273 179 261 241 246 353 325 157 296 100 299 272 276 14 8 12 63 48 42 80 70 72 61 54 53 48 37 19 30 17 17 12 15 16 9 6 18 19 31 18 26 32 27 29 31 39 32 23 28 31 30 39 53 43 64 87 70 75 57 45 44 43 37 40 39 37 35 35 34 34 33 28 34 38 36 39 37 33 30 26 30 45 53 53 60 51 49 41 35 41 66 342 9 352
157 209 240 299 264 240 282 292 341 298 124 266 6 312 275 340 34 33 47 60 58 40 54 66 81 65 54 43 44 43 46 37 21 18 14 17 14 9 15 20 25 26 23 30 25 32 30 33 32 34 31 32 29 26 37 48 49 49 69 67 71 79 61 68 65 51 46 46 42 37 36 38 36 37 29 29 36 30 34 41 40 38 39 32 38 37 37 40 41 51 47 45 4 23 211 360 56
196 129 155 236 216 33 299 289 4 10 102 288 358 336 290 106 75 58 37 67 86 69 68 66 58 74 70 55 37 48 46 33 31 16 16 13 17 9 20 24 14 20 29 29 26 33 32 32 30 32 33 33 30 25 31 35 59 72 70 80 73 70 67 57 64 49 39 38 35 31 34 31 31 33 28 30 36 34 29 31 29 33 34 31 38 38 31 27 19 29 40 63 95 345 15 20 68
258 188 206 238 206 228 188 249 316 330 64 74 43 338 306 303 158 57 76 84 83 35 54 53 40 43 52 86 55 34 53 22 28 21 19 20 21 21 22 14 8 33 32 30 25 29 36 33 31 37 39 37 37 32 32 33 57 53 57 77 78 76 47 39 39 33 32 36 38 32 26 26 31 36 33 33 33 33 33 33 35 34 36 30 37 45 42 36 33 30 24 26 32 25 353 25 4
306 228 203 215 215 230 260 338 10 12 331 338 109 351 302 294 290 169 189 38 47 11 61 40 31 26 26 57 38 13 23 30 43 25 15 18 21 23 26 18 28 30 32 20 19 29 35 36 37 40 44 40 34 32 35 55 58 62 56 50 45 46 46 33 34 25 25 32 36 32 36 31 32 38 35 33 33 31 32 29 32 33 32 29 30 38 35 30 28 28 17 21 17 17 360 1 345
82 271 199 215 214 182 172 176 95 287 168 338 28 188 265 327 306 189 160 106 89 32 48 44 23 27 38 55 41 2 11 21 27 33 23 32 21 36 25 23 16 33 20 4 24 34 38 43 43 47 49 45 35 35 36 59 65 64 70 74 74 69 76 55 48 44 52 45 52 46 41 36 35 38 36 35 34 33 34 31 30 32 32 29 25 34 32 26 21 24 13 28 24 13 21 20 2
224 252 131 133 143 178 200 158 177 214 257 295 23 121 215 305 291 159 148 128 120 119 188 190 184 194 177 143 343 356 11 18 27 38 32 28 42 39 29 2 14 15 357 14 37 34 43 42 49 51 50 50 39 38 50 49 77 77 79 78 74 70 71 78 52 53 51 54 56 45 42 40 39 39 37 36 35 36 37 36 33 34 35 28 29 32 28 14 20 23 27 26 30 29 23 28 348
216 191 133 144 159 177 126 117 139 231 13 288 316 298 315 251 257 43 172 127 194 205 190 197 193 214 210 205 232 265 354 354 41 58 33 20 31 26 4 23 354 10 15 33 34 36 39 46 56 58 54 49 39 43 56 53 67 76 82 87 82 71 79 75 73 57 56 46 59 43 45 39 38 37 36 34 33 34 36 36 35 38 38 31 30 30 25 23 25 22 19 22 24 28 28 9 18
218 130 95 87 81 72 108 105 95 352 66 266 260 191 239 275 271 305 267 248 208 201 194 188 205 198 202 204 216 228 334 34 23 40 27 15 9 9 340 340 24 20 14 30 38 44 47 51 59 62 52 48 40 50 58 61 61 70 75 75 85 80 73 73 67 60 54 43 57 47 44 43 36 36 32 32 31 27 29 29 32 33 32 29 32 30 27 27 23 26 25 26 25 31 21 23 21
130 112 75 34 46 41 36 68 94 67 251 242 228 234 185 292 259 209 163 216 187 145 124 202 216 233 236 230 217 190 184 95 54 31 13 1 338 1 357 50 30 24 23 43 50 51 53 60 63 65 50 50 46 51 59 63 62 63 75 75 79 83 73 74 67 55 50 48 51 45 43 42 41 41 36 36 36 29 29 29 30 27 27 26 25 23 22 19 16 21 21 31 35 34 21 18 18
131 124 131 84 28 14 44 346 37 158 265 261 257 219 170 183 288 278 228 140 171 161 175 181 194 202 202 203 213 215 212 221 16 51 59 30 45 32 33 55 41 34 43 54 55 53 58 60 69 76 55 51 50 53 65 65 68 68 73 76 76 71 71 67 64 59 44 51 48 47 36 43 36 37 37 35 31 25 28 28 29 30 29 24 25 20 19 15 8 12 17 22 23 24 25 28 27
84 89 66 110 252 38 304 21 253 206 211 186 4 150 106 241 228 226 205 224 215 232 211 186 182 190 195 199 204 205 206 222 192 177 170 95 101 80 78 69 64 52 65 60 56 62 64 66 70 82 63 50 54 57 70 68 71 68 72 75 75 71 68 68 66 64 43 51 47 47 40 40 29 34 27 29 20 19 22 22 22 23 22 23 21 21 16 15 10 13 14 13 14 17 10 8 17
114 150 139 98 176 188 246 265 247 308 290 254 221 146 267 243 284 218 223 249 220 233 237 232 197 184 183 186 188 192 219 210 205 204 204 201 180 150 157 116 104 96 76 71 68 72 72 75 72 82 76 53 60 65 68 74 67 67 68 75 73 75 72 71 66 67 54 57 52 54 48 40 40 36 26 26 9 13 22 20 20 22 22 18 20 20 18 14 10 10 9 12 7 2 359 0 357
210 88 148 182 143 154 232 181 206 218 199 240 263 82 229 136 224 223 241 276 289 245 234 230 203 189 179 166 165 180 212 228 214 208 208 196 206 200 161 155 141 110 97 84 82 80 83 80 77 88 83 56 65 69 70 74 71 67 68 71 76 74 77 75 71 68 64 66 53 63 54 46 51 33 32 11 10 18 15 15 14 15 12 12 12 14 12 10 9 4 10 4 0 357 356 352 348
194 171 74 91 233 136 229 203 158 219 320 330 201 206 185 180 163 260 279 311 344 352 215 174 176 172 154 158 185 200 208 214 204 207 217 233 226 220 206 182 158 127 120 109 97 103 98 96 91 89 94 85 73 75 73 84 84 82 72 73 73 77 82 82 74 67 64 73 70 72 64 61 56 44 19 24 9 24 17 14 11 11 5 7 8 8 7 8 3 4 1 3 1 354 354 348 342
211 102 191 208 157 106 76 40 35 69 46 255 145 304 302 306 307 133 323 7 328 360 165 173 174 176 168 191 202 207 211 206 204 202 202 213 220 225 207 194 170 160 136 137 141 137 128 122 114 102 98 91 85 90 92 83 83 78 68 73 73 75 77 80 86 83 84 76 87 78 76 67 61 50 22 27 17 16 20 19 15 9 8 5 6 4 4 3 0 360 359 355 356 351 349 342 336
97 177 231 173 138 116 134 235 4 66 208 270 98 210 254 112 273 105 354 259 265 241 197 199 185 172 190 208 205 208 207 206 197 202 206 207 206 201 206 208 191 175 168 160 159 171 156 147 136 129 129 112 115 102 88 89 91 88 90 87 86 95 99 100 102 100 93 72 48 47 40 32 26 14 16 9 10 9 12 11 13 8 6 8 8 0 3 360 359 358 351 349 342 343 341 337 337
150 191 207 116 208 184 302 82 272 265 255 268 287 292 262 186 229 103 239 198 214 212 203 188 201 198 205 210 215 214 217 208 204 205 205 209 203 203 195 191 199 198 194 183 172 167 151 139 147 140 132 135 127 113 106 87 94 103 101 91 90 83 80 82 76 66 52 45 34 30 30 21 12 13 11 7 6 4 4 2 4 1 1 4 4 2 360 357 358 351 345 341 335 343 338 330 327
53 79 94 347 121 188 125 200 192 121 266 39 287 103 244 190 214 180 201 200 186 181 190 208 203 198 200 205 206 201 206 207 197 199 201 198 204 201 190 183 186 194 191 194 178 156 154 162 135 120 104 109 101 109 121 94 73 86 70 62 52 63 61 73 56 52 44 40 32 28 23 18 9 8 10 2 6 3 359 359 357 357 356 357 357 357 356 353 350 350 340 338 331 332 328 322 317
114 123 236 173 22 231 106 2 140 187 188 203 269 293 275 262 207 174 197 184 182 179 189 197 198 204 210 209 199 202 205 203 197 194 194 197 200 200 200 196 195 194 189 175 174 172 173 167 161 171 144 142 105 90 71 65 67 73 81 72 62 54 49 52 54 46 50 36 28 27 20 2 1 9 3 360 3 359 358 356 353 354 354 349 349 346 348 346 344 337 336 328 326 330 325 319 316
174 167 192 177 131 164 189 251 73 101 133 236 167 256 278 261 162 216 217 189 180 195 182 182 195 202 206 205 206 202 203 208 194 189 187 192 195 197 201 201 200 181 188 181 188 169 169 166 152 136 112 95 102 80 90 124 121 92 64 51 43 46 42 42 64 45 47 38 24 22 12 5 18 358 8 360 359 353 354 353 356 350 349 346 342 342 339 344 338 333 329 329 327 325 320 315 316